Time,TemperatureF,DewpointF,PressureIn,WindDirection,WindDirectionDegrees,WindSpeedMPH,WindSpeedGustMPH,Humidity,HourlyPrecipIn,Conditions,Clouds,dailyrainin,SoftwareType,DateUTC
2013-08-09 00:03:00,59.2,57.5,29.91,West,270,0.0,0.0,94,0.00,,,0.00,pywws,2013-08-08 14:03:00,
2013-08-09 00:14:00,59.2,57.5,29.90,West,270,0.0,0.0,94,0.00,,,0.00,pywws,2013-08-08 14:14:00,
2013-08-09 00:24:00,59.0,57.3,29.90,South,180,0.0,0.0,94,0.00,,,0.00,pywws,2013-08-08 14:24:00,
2013-08-09 00:34:00,59.0,57.3,29.89,West,270,0.0,0.0,94,0.00,,,0.00,pywws,2013-08-08 14:34:00,
2013-08-09 00:44:00,58.6,57.2,29.90,West,270,0.0,0.0,95,0.00,,,0.00,pywws,2013-08-08 14:44:00,
2013-08-09 00:54:00,58.5,57.0,29.90,West,270,0.0,0.0,95,0.00,,,0.00,pywws,2013-08-08 14:54:00,
2013-08-09 01:03:00,58.3,56.9,29.90,West,270,0.0,1.6,95,0.00,,,0.00,pywws,2013-08-08 15:03:00,
2013-08-09 01:14:00,57.9,56.5,29.90,SW,225,0.0,0.0,95,0.00,,,0.00,pywws,2013-08-08 15:14:00,
2013-08-09 01:24:00,57.9,56.5,29.89,West,270,0.0,0.0,95,0.00,,,0.00,pywws,2013-08-08 15:24:00,
2013-08-09 01:34:00,57.6,56.1,29.89,West,270,0.0,0.0,95,0.00,,,0.00,pywws,2013-08-08 15:34:00,
2013-08-09 01:44:00,57.2,55.8,29.89,East,90,0.0,0.0,95,0.00,,,0.00,pywws,2013-08-08 15:44:00,
2013-08-09 01:54:00,56.8,55.7,29.89,West,270,0.0,0.0,96,0.00,,,0.00,pywws,2013-08-08 15:54:00,
2013-08-09 02:03:00,57.0,55.9,29.88,West,270,0.0,0.0,96,0.00,,,0.00,pywws,2013-08-08 16:03:00,
2013-08-09 02:14:00,56.8,55.7,29.88,West,270,0.0,0.0,96,0.00,,,0.00,pywws,2013-08-08 16:14:00,
2013-08-09 02:24:00,56.5,55.1,29.88,West,270,0.0,0.0,95,0.00,,,0.00,pywws,2013-08-08 16:24:00,
2013-08-09 02:34:00,56.3,54.9,29.88,West,270,0.0,0.0,95,0.00,,,0.00,pywws,2013-08-08 16:34:00,
2013-08-09 02:44:00,56.1,54.7,29.88,West,270,0.0,1.6,95,0.00,,,0.00,pywws,2013-08-08 16:44:00,
2013-08-09 02:54:00,56.1,54.4,29.88,West,270,0.0,0.0,94,0.00,,,0.00,pywws,2013-08-08 16:54:00,
2013-08-09 03:03:00,55.9,53.9,29.88,West,270,0.0,0.0,93,0.00,,,0.00,pywws,2013-08-08 17:03:00,
2013-08-09 03:14:00,55.6,53.3,29.88,West,270,0.0,0.0,92,0.00,,,0.00,pywws,2013-08-08 17:14:00,
2013-08-09 03:24:00,55.2,52.9,29.88,West,270,0.0,0.0,92,0.00,,,0.00,pywws,2013-08-08 17:24:00,
2013-08-09 03:34:00,55.2,52.9,29.88,West,270,0.0,0.0,92,0.00,,,0.00,pywws,2013-08-08 17:34:00,
2013-08-09 03:44:00,55.2,52.6,29.88,West,270,0.0,0.7,91,0.00,,,0.00,pywws,2013-08-08 17:44:00,
2013-08-09 03:54:00,55.2,52.6,29.88,SW,225,0.0,0.0,91,0.00,,,0.00,pywws,2013-08-08 17:54:00,
2013-08-09 04:03:00,55.4,52.2,29.88,SW,225,0.0,0.0,89,0.00,,,0.00,pywws,2013-08-08 18:03:00,
2013-08-09 04:14:00,55.2,52.0,29.88,West,270,0.0,0.0,89,0.00,,,0.00,pywws,2013-08-08 18:14:00,
2013-08-09 04:24:00,55.0,51.9,29.88,NE,45,0.0,0.0,89,0.00,,,0.00,pywws,2013-08-08 18:24:00,
2013-08-09 04:34:00,54.7,51.5,29.88,NE,45,0.0,0.0,89,0.00,,,0.00,pywws,2013-08-08 18:34:00,
2013-08-09 04:43:00,54.3,51.1,29.88,SW,225,0.0,0.0,89,0.00,,,0.00,pywws,2013-08-08 18:43:00,
2013-08-09 04:54:00,54.3,51.1,29.88,West,270,0.0,0.0,89,0.00,,,0.00,pywws,2013-08-08 18:54:00,
2013-08-09 05:03:00,54.3,51.1,29.88,West,270,0.0,0.0,89,0.00,,,0.00,pywws,2013-08-08 19:03:00,
2013-08-09 05:14:00,54.3,51.1,29.88,West,270,0.0,0.0,89,0.00,,,0.00,pywws,2013-08-08 19:14:00,
2013-08-09 05:24:00,53.8,50.3,29.89,West,270,0.0,0.0,88,0.00,,,0.00,pywws,2013-08-08 19:24:00,
2013-08-09 05:34:00,53.8,50.3,29.89,SW,225,0.0,0.0,88,0.00,,,0.00,pywws,2013-08-08 19:34:00,
2013-08-09 05:44:00,54.1,50.7,29.89,SW,225,0.0,1.6,88,0.00,,,0.00,pywws,2013-08-08 19:44:00,
2013-08-09 05:54:00,54.1,50.0,29.89,West,270,0.0,0.0,86,0.00,,,0.00,pywws,2013-08-08 19:54:00,
2013-08-09 06:03:00,54.0,49.9,29.90,West,270,0.0,1.6,86,0.00,,,0.00,pywws,2013-08-08 20:03:00,
2013-08-09 06:14:00,54.0,49.9,29.90,SW,225,0.0,0.0,86,0.00,,,0.00,pywws,2013-08-08 20:14:00,
2013-08-09 06:24:00,53.8,49.7,29.91,SW,225,0.0,0.0,86,0.00,,,0.00,pywws,2013-08-08 20:24:00,
2013-08-09 06:34:00,53.8,49.7,29.91,SW,225,0.0,0.0,86,0.00,,,0.00,pywws,2013-08-08 20:34:00,
2013-08-09 06:44:00,53.8,49.7,29.91,SW,225,0.0,0.0,86,0.00,,,0.00,pywws,2013-08-08 20:44:00,
2013-08-09 06:54:00,53.8,49.7,29.92,SW,225,0.0,0.0,86,0.00,,,0.00,pywws,2013-08-08 20:54:00,
2013-08-09 07:03:00,54.3,49.9,29.93,SW,225,0.0,0.0,85,0.00,,,0.00,pywws,2013-08-08 21:03:00,
2013-08-09 07:14:00,55.0,50.3,29.92,SW,225,0.0,0.0,84,0.00,,,0.00,pywws,2013-08-08 21:14:00,
2013-08-09 07:25:00,56.7,52.2,29.93,North,0,0.0,0.0,85,0.00,,,0.00,pywws,2013-08-08 21:25:00,
2013-08-09 07:34:00,59.4,53.5,29.93,SW,225,0.0,0.0,81,0.00,,,0.00,pywws,2013-08-08 21:34:00,
2013-08-09 07:44:00,62.1,54.0,29.94,NE,45,2.2,3.1,75,0.00,,,0.00,pywws,2013-08-08 21:44:00,
2013-08-09 07:49:00,61.3,52.6,29.94,NE,45,1.6,3.8,73,0.00,,,0.00,pywws,2013-08-08 21:49:00,
2013-08-09 07:54:00,61.5,53.2,29.94,NE,45,0.7,1.6,74,0.00,,,0.00,pywws,2013-08-08 21:54:00,
2013-08-09 08:03:00,64.2,55.0,29.94,North,0,2.2,3.8,72,0.00,,,0.00,pywws,2013-08-08 22:03:00,
2013-08-09 08:14:00,64.8,54.7,29.94,SE,135,0.0,0.0,70,0.00,,,0.00,pywws,2013-08-08 22:14:00,
2013-08-09 08:24:00,67.3,55.5,29.94,NE,45,0.0,0.7,66,0.00,,,0.00,pywws,2013-08-08 22:24:00,
2013-08-09 08:34:00,68.5,55.9,29.95,NE,45,3.1,3.8,64,0.00,,,0.00,pywws,2013-08-08 22:34:00,
2013-08-09 08:45:00,68.5,55.9,29.95,NE,45,2.2,3.1,64,0.00,,,0.00,pywws,2013-08-08 22:45:00,
2013-08-09 08:54:00,69.6,57.3,29.95,East,90,1.6,2.2,65,0.00,,,0.00,pywws,2013-08-08 22:54:00,
2013-08-09 09:03:00,71.1,57.8,29.94,NE,45,0.0,1.6,63,0.00,,,0.00,pywws,2013-08-08 23:03:00,
2013-08-09 09:14:00,72.3,58.1,29.95,NE,45,1.6,3.1,61,0.00,,,0.00,pywws,2013-08-08 23:14:00,
2013-08-09 09:26:00,73.6,57.9,29.95,NE,45,0.7,1.6,58,0.00,,,0.00,pywws,2013-08-08 23:26:00,
2013-08-09 09:34:00,74.3,58.1,29.95,NE,45,0.7,1.6,57,0.00,,,0.00,pywws,2013-08-08 23:34:00,
2013-08-09 09:44:00,76.1,58.7,29.95,NE,45,2.2,3.8,55,0.00,,,0.00,pywws,2013-08-08 23:44:00,
2013-08-09 09:54:00,76.8,58.9,29.95,NE,45,0.7,2.2,54,0.00,,,0.00,pywws,2013-08-08 23:54:00,
2013-08-09 10:03:00,78.3,60.2,29.95,NE,45,3.8,6.0,54,0.00,,,0.00,pywws,2013-08-09 00:03:00,
2013-08-09 10:14:00,80.4,59.5,29.94,NE,45,3.1,3.8,49,0.00,,,0.00,pywws,2013-08-09 00:14:00,
2013-08-09 10:24:00,80.8,58.6,29.94,East,90,0.7,3.1,47,0.00,,,0.00,pywws,2013-08-09 00:24:00,
2013-08-09 10:34:00,83.8,60.8,29.94,NE,45,0.7,2.2,46,0.00,,,0.00,pywws,2013-08-09 00:34:00,
2013-08-09 10:44:00,85.6,59.2,29.93,South,180,0.0,0.7,41,0.00,,,0.00,pywws,2013-08-09 00:44:00,
2013-08-09 10:54:00,86.4,56.2,29.93,NE,45,0.7,3.1,36,0.00,,,0.00,pywws,2013-08-09 00:54:00,
2013-08-09 11:04:00,87.1,56.9,29.93,NE,45,1.6,3.1,36,0.00,,,0.00,pywws,2013-08-09 01:04:00,
2013-08-09 11:14:00,88.0,56.1,29.93,East,90,1.6,3.1,34,0.00,,,0.00,pywws,2013-08-09 01:14:00,
2013-08-09 11:25:00,88.0,56.9,29.92,SE,135,1.6,5.4,35,0.00,,,0.00,pywws,2013-08-09 01:25:00,
2013-08-09 11:34:00,87.4,55.6,29.92,North,0,3.8,5.4,34,0.00,,,0.00,pywws,2013-08-09 01:34:00,
2013-08-09 11:45:00,86.7,55.0,29.91,East,90,2.2,3.8,34,0.00,,,0.00,pywws,2013-08-09 01:45:00,
2013-08-09 11:54:00,86.9,55.1,29.91,West,270,2.2,3.1,34,0.00,,,0.00,pywws,2013-08-09 01:54:00,
2013-08-09 12:03:00,88.2,58.6,29.90,South,180,2.2,4.5,37,0.00,,,0.00,pywws,2013-08-09 02:03:00,
2013-08-09 12:14:00,88.2,59.3,29.90,NE,45,1.6,3.1,38,0.00,,,0.00,pywws,2013-08-09 02:14:00,
2013-08-09 12:24:00,88.2,59.3,29.90,South,180,0.7,2.2,38,0.00,,,0.00,pywws,2013-08-09 02:24:00,
2013-08-09 12:34:00,88.7,59.8,29.89,SE,135,3.1,4.5,38,0.00,,,0.00,pywws,2013-08-09 02:34:00,
2013-08-09 12:44:00,88.7,60.5,29.88,NW,315,1.6,3.1,39,0.00,,,0.00,pywws,2013-08-09 02:44:00,
2013-08-09 12:54:00,89.1,61.6,29.88,North,0,3.1,5.4,40,0.00,,,0.00,pywws,2013-08-09 02:54:00,
2013-08-09 13:03:00,88.5,58.9,29.87,WNW,292,0.0,1.6,37,0.00,,,0.00,pywws,2013-08-09 03:03:00,
2013-08-09 13:14:00,88.2,60.8,29.87,SE,135,1.6,3.1,40,0.00,,,0.00,pywws,2013-08-09 03:14:00,
2013-08-09 13:24:00,87.8,61.8,29.86,South,180,0.0,1.6,42,0.00,,,0.00,pywws,2013-08-09 03:24:00,
2013-08-09 13:34:00,88.5,62.5,29.86,SSE,158,1.6,4.5,42,0.00,,,0.00,pywws,2013-08-09 03:34:00,
2013-08-09 13:43:00,88.7,62.6,29.86,ENE,68,1.6,3.1,42,0.00,,,0.00,pywws,2013-08-09 03:43:00,
2013-08-09 13:54:00,88.7,62.6,29.86,North,0,1.6,3.1,42,0.00,,,0.00,pywws,2013-08-09 03:54:00,
2013-08-09 14:03:00,88.5,62.5,29.86,East,90,3.8,6.9,42,0.00,,,0.00,pywws,2013-08-09 04:03:00,
2013-08-09 14:05:00,88.2,62.8,29.85,NE,45,4.5,6.9,43,0.00,,,0.00,pywws,2013-08-09 04:05:00,
2013-08-09 14:06:00,88.2,62.8,29.86,NE,45,6.0,9.8,43,0.00,,,0.00,pywws,2013-08-09 04:06:00,
2013-08-09 14:08:00,87.8,61.8,29.85,SE,135,1.6,3.1,42,0.00,,,0.00,pywws,2013-08-09 04:08:00,
2013-08-09 14:14:00,87.8,62.5,29.85,SE,135,2.2,4.5,43,0.00,,,0.00,pywws,2013-08-09 04:14:00,
2013-08-09 14:17:00,87.3,62.6,29.85,NE,45,1.6,3.1,44,0.00,,,0.00,pywws,2013-08-09 04:17:00,
2013-08-09 14:24:00,88.2,62.8,29.85,East,90,2.2,4.5,43,0.00,,,0.00,pywws,2013-08-09 04:24:00,
2013-08-09 14:34:00,87.6,63.0,29.84,North,0,1.6,3.8,44,0.00,,,0.00,pywws,2013-08-09 04:34:00,
2013-08-09 14:44:00,89.4,63.3,29.84,North,0,1.6,3.1,42,0.00,,,0.00,pywws,2013-08-09 04:44:00,
2013-08-09 14:54:00,90.9,63.9,29.84,East,90,1.6,3.1,41,0.00,,,0.00,pywws,2013-08-09 04:54:00,
2013-08-09 15:03:00,89.2,63.1,29.83,NE,45,1.6,3.1,42,0.00,,,0.00,pywws,2013-08-09 05:03:00,
2013-08-09 15:14:00,89.6,62.7,29.83,ENE,68,1.6,4.5,41,0.00,,,0.00,pywws,2013-08-09 05:14:00,
2013-08-09 15:24:00,89.4,60.4,29.83,NE,45,0.0,1.6,38,0.00,,,0.00,pywws,2013-08-09 05:24:00,
2013-08-09 15:34:00,89.6,59.8,29.83,NE,45,3.1,6.0,37,0.00,,,0.00,pywws,2013-08-09 05:34:00,
2013-08-09 15:43:00,90.1,61.1,29.83,NE,45,1.6,2.2,38,0.00,,,0.00,pywws,2013-08-09 05:43:00,
2013-08-09 15:54:00,90.1,60.3,29.83,SE,135,1.6,3.1,37,0.00,,,0.00,pywws,2013-08-09 05:54:00,
2013-08-09 16:03:00,87.6,63.0,29.83,West,270,0.7,1.6,44,0.00,,,0.00,pywws,2013-08-09 06:03:00,
2013-08-09 16:14:00,86.4,62.5,29.83,North,0,0.0,1.6,45,0.00,,,0.00,pywws,2013-08-09 06:14:00,
2013-08-09 16:24:00,87.3,63.3,29.83,SW,225,1.6,3.1,45,0.00,,,0.00,pywws,2013-08-09 06:24:00,
2013-08-09 16:34:00,85.3,63.3,29.83,West,270,1.6,4.5,48,0.00,,,0.00,pywws,2013-08-09 06:34:00,
2013-08-09 16:44:00,83.8,62.6,29.83,SW,225,3.1,4.5,49,0.00,,,0.00,pywws,2013-08-09 06:44:00,
2013-08-09 16:54:00,82.4,62.4,29.83,West,270,1.6,3.1,51,0.00,,,0.00,pywws,2013-08-09 06:54:00,
2013-08-09 17:03:00,82.2,62.3,29.84,West,270,1.6,3.1,51,0.00,,,0.00,pywws,2013-08-09 07:03:00,
2013-08-09 17:14:00,76.8,60.9,29.85,SW,225,1.6,2.2,58,0.00,,,0.00,pywws,2013-08-09 07:14:00,
2013-08-09 17:23:00,73.0,59.7,29.85,West,270,0.7,2.2,63,0.00,,,0.00,pywws,2013-08-09 07:23:00,
2013-08-09 17:34:00,72.0,59.1,29.85,West,270,2.2,3.1,64,0.00,,,0.00,pywws,2013-08-09 07:34:00,
2013-08-09 17:43:00,71.1,59.1,29.85,SW,225,0.7,1.6,66,0.00,,,0.00,pywws,2013-08-09 07:43:00,
2013-08-09 17:54:00,70.0,58.9,29.85,West,270,0.7,1.6,68,0.00,,,0.00,pywws,2013-08-09 07:54:00,
2013-08-09 18:03:00,69.3,59.4,29.86,West,270,0.7,1.6,71,0.00,,,0.00,pywws,2013-08-09 08:03:00,
2013-08-09 18:14:00,68.9,59.5,29.86,West,270,1.6,2.2,72,0.00,,,0.00,pywws,2013-08-09 08:14:00,
2013-08-09 18:24:00,68.5,59.5,29.86,West,270,1.6,3.1,73,0.00,,,0.00,pywws,2013-08-09 08:24:00,
2013-08-09 18:34:00,68.4,59.4,29.87,West,270,2.2,3.1,73,0.00,,,0.00,pywws,2013-08-09 08:34:00,
2013-08-09 18:44:00,67.8,59.2,29.87,SE,135,0.0,0.0,74,0.00,,,0.00,pywws,2013-08-09 08:44:00,
2013-08-09 18:54:00,66.9,58.7,29.88,SW,225,0.0,0.0,75,0.00,,,0.00,pywws,2013-08-09 08:54:00,
2013-08-09 19:03:00,66.2,58.8,29.88,West,270,0.0,0.0,77,0.00,,,0.00,pywws,2013-08-09 09:03:00,
2013-08-09 19:14:00,65.7,58.6,29.88,SW,225,0.0,1.6,78,0.00,,,0.00,pywws,2013-08-09 09:14:00,
2013-08-09 19:23:00,65.1,58.8,29.89,SW,225,0.0,0.7,80,0.00,,,0.00,pywws,2013-08-09 09:23:00,
2013-08-09 19:34:00,64.6,57.9,29.89,SE,135,0.0,0.0,79,0.00,,,0.00,pywws,2013-08-09 09:34:00,
2013-08-09 19:44:00,64.0,58.4,29.90,SW,225,0.0,0.7,82,0.00,,,0.00,pywws,2013-08-09 09:44:00,
2013-08-09 19:54:00,63.5,57.9,29.90,SW,225,0.7,1.6,82,0.00,,,0.00,pywws,2013-08-09 09:54:00,
2013-08-09 20:03:00,63.0,57.0,29.91,SW,225,0.0,0.0,81,0.00,,,0.00,pywws,2013-08-09 10:03:00,
2013-08-09 20:14:00,62.6,57.0,29.91,SW,225,0.0,0.0,82,0.00,,,0.00,pywws,2013-08-09 10:14:00,
2013-08-09 20:24:00,62.4,57.2,29.91,West,270,0.0,0.0,83,0.00,,,0.00,pywws,2013-08-09 10:24:00,
2013-08-09 20:34:00,62.1,57.2,29.91,West,270,0.0,0.0,84,0.00,,,0.00,pywws,2013-08-09 10:34:00,
2013-08-09 20:44:00,61.9,57.3,29.91,West,270,0.7,1.6,85,0.00,,,0.00,pywws,2013-08-09 10:44:00,
2013-08-09 20:54:00,61.7,57.1,29.92,SW,225,0.0,1.6,85,0.00,,,0.00,pywws,2013-08-09 10:54:00,
2013-08-09 21:03:00,61.3,56.8,29.92,SW,225,0.0,0.7,85,0.00,,,0.00,pywws,2013-08-09 11:03:00,
2013-08-09 21:14:00,61.0,56.4,29.92,West,270,0.7,1.6,85,0.00,,,0.00,pywws,2013-08-09 11:14:00,
2013-08-09 21:23:00,60.8,56.3,29.92,West,270,0.0,0.0,85,0.00,,,0.00,pywws,2013-08-09 11:23:00,
2013-08-09 21:34:00,60.4,55.9,29.92,SW,225,0.0,0.7,85,0.00,,,0.00,pywws,2013-08-09 11:34:00,
2013-08-09 21:44:00,60.3,55.7,29.93,SW,225,0.0,0.7,85,0.00,,,0.00,pywws,2013-08-09 11:44:00,
2013-08-09 21:54:00,59.9,55.1,29.93,SW,225,0.7,1.6,84,0.00,,,0.00,pywws,2013-08-09 11:54:00,
2013-08-09 22:03:00,59.7,54.2,29.93,West,270,0.7,1.6,82,0.00,,,0.00,pywws,2013-08-09 12:03:00,
2013-08-09 22:14:00,59.7,54.2,29.93,West,270,0.0,0.0,82,0.00,,,0.00,pywws,2013-08-09 12:14:00,
2013-08-09 22:23:00,59.5,54.0,29.93,West,270,0.0,0.0,82,0.00,,,0.00,pywws,2013-08-09 12:23:00,
2013-08-09 22:34:00,59.4,53.9,29.93,NE,45,0.0,0.0,82,0.00,,,0.00,pywws,2013-08-09 12:34:00,
2013-08-09 22:43:00,59.0,53.5,29.93,SW,225,0.0,0.0,82,0.00,,,0.00,pywws,2013-08-09 12:43:00,
2013-08-09 22:54:00,58.8,54.0,29.93,West,270,0.0,0.0,84,0.00,,,0.00,pywws,2013-08-09 12:54:00,
2013-08-09 23:03:00,58.6,54.1,29.93,West,270,0.0,0.0,85,0.00,,,0.00,pywws,2013-08-09 13:03:00,
2013-08-09 23:14:00,58.3,53.8,29.93,SW,225,0.0,0.0,85,0.00,,,0.00,pywws,2013-08-09 13:14:00,
2013-08-09 23:24:00,58.3,54.1,29.93,West,270,0.0,0.0,86,0.00,,,0.00,pywws,2013-08-09 13:24:00,
2013-08-09 23:34:00,58.1,53.9,29.93,West,270,0.0,0.0,86,0.00,,,0.00,pywws,2013-08-09 13:34:00,
2013-08-09 23:44:00,57.9,53.8,29.94,SW,225,0.0,0.0,86,0.00,,,0.00,pywws,2013-08-09 13:44:00,
2013-08-09 23:54:00,57.9,53.8,29.94,SW,225,0.0,0.0,86,0.00,,,0.00,pywws,2013-08-09 13:54:00,